Simultaneous Nadir Overpasses (SNOs) Predictions

Prediction of SNOs between GOES-15 and TERRA Satellite Orbit:

Table of predicted SNOs for the next 14.0 days since TLE Epoch: 10/27/2012
Index Date Time (GOES-15) GOES-15 Lat,Lon TERRA Lat,Lon Distance(km) Time Diff (sec)
1 10/28/2012 19:27:17 -0.29,-135.16 -0.48,-134.14 114.73 80
2 10/29/2012 07:48:40 0.28,-135.15 -0.63,-139.33 475.76 80
3 10/30/2012 19:15:06 -0.29,-135.11 -1.14,-131.19 445.80 80
4 10/31/2012 07:36:29 0.28,-135.10 0.03,-136.38 144.90 80
5 11/02/2012 07:21:37 0.28,-135.04 0.65,-133.42 185.48 80
6 11/02/2012 19:45:32 -0.26,-135.02 0.47,-138.57 403.19 80
7 11/04/2012 19:33:19 -0.26,-134.95 -0.11,-135.59 73.28 80
8 11/06/2012 19:21:06 -0.25,-134.88 -0.70,-132.62 256.26 80
9 11/07/2012 07:42:30 0.24,-134.88 -0.38,-137.81 333.89 80
10 11/09/2012 07:30:17 0.24,-134.80 0.23,-134.85 5.11 80




NCC Satellite Simultaneous Nadir Overpasses (SNOs) Prediction Service
